Voltar ao catálogo

FENGYUN 1C DEB

AtivoSSO
NORAD 29958·DEBRIS·🇨🇳 China

Lançado May 10, 1999 de Taiyuan Satellite Launch Center

Loading…

Próximas Passagens (próximas 24 horas)

TLE

AtualizadoSource: Space-Track

Época: Sep 14, 2026, 06:23 UTC

1 29958U 99025KG  26257.26663601  .00000271  00000-0  16077-3 0  9994
2 29958  98.6608 268.5049 0053396 264.3445  95.1638 14.14699377 13401

Acompanhe FENGYUN 1C DEB em tempo real com AllMySat

Download on the App Store